Beatrice, NE

8:23 AM CDT on April 24, 2017 (GMT -0500)
Beatrice Municipal

Weather History for KBIE - September, 2013

Change the Weather History Date:

Friday, September 27, 2013

  Actual Average Record
Temperature  
Mean Temperature 78 °F -  
Max Temperature 87 °F 74 °F 95 °F (1956)
Min Temperature 68 °F 50 °F 32 °F (1967)
Cooling Degree Days 12    
Growing Degree Days 28 (Base 50)    
Moisture  
Dew Point 59 °F    
Average Humidity 55    
Maximum Humidity 73    
Minimum Humidity 41    
Precipitation  
Precipitation 0.00 in - - ()
Sea Level Pressure  
Sea Level Pressure 29.81 in    
Wind  
Wind Speed 15 mph (SSE)    
Max Wind Speed 25 mph    
Max Gust Speed 33 mph    
Visibility 10 miles    
Events Rain    
Averages and records for this station are not official NWS values.
T = Trace of Precipitation, MM = Missing Value Source: NWS Daily Summary

Daily Weather History Graph

Daily Weather History Graph

Search for Another Location

Airport or City:

Trip Planner

Search our weather history database for the weather conditions in past years. The results will help you decide how hot, cold, wet, or windy it might be!

Date:

Astronomy

Sep. 27, 2013 Rise Set
Actual Time 7:19 AM CDT 7:15 PM CDT
Civil Twilight 6:52 AM CDT 7:42 PM CDT
Nautical Twilight 6:20 AM CDT 8:13 PM CDT
Astronomical Twilight 5:48 AM CDT 8:45 PM CDT
Moon 12:15 AM CDT (9/27) 2:55 PM CDT (9/27)
Length of Visible Light 12h 49m
Length of Day
11h 55m
Last Quarter, 45% of the Moon is Illuminated
Sep 27
Last Quarter
Oct 4
New
Oct 11
First Quarter
Oct 18
Full
Oct 26
Last Quarter

Hourly Weather History & Observations

Time (CDT) Temp. Heat Index Dew Point Humidity Pressure Visibility Wind Dir Wind Speed Gust Speed Precip Events Conditions
12:15 AM 73.8 °F - 59.5 °F 61% 29.81 in 10.0 mi SE 10.4 mph 17.3 mph N/A   Clear
12:35 AM 73.2 °F - 59.4 °F 62% 29.81 in 10.0 mi SSE 11.5 mph 21.9 mph N/A   Clear
12:55 AM 73.4 °F - 59.4 °F 61% 29.81 in 10.0 mi SSE 13.8 mph 24.2 mph N/A   Clear
1:15 AM 73.2 °F - 59.2 °F 61% 29.81 in 10.0 mi SSE 13.8 mph 23.0 mph N/A   Clear
1:35 AM 72.9 °F - 59.2 °F 62% 29.81 in 10.0 mi SSE 12.7 mph 19.6 mph N/A   Clear
1:55 AM 72.5 °F - 59.2 °F 63% 29.82 in 10.0 mi SSE 15.0 mph 18.4 mph N/A   Clear
2:15 AM 72.0 °F - 59.2 °F 64% 29.82 in 10.0 mi SSE 15.0 mph 20.7 mph N/A   Clear
2:35 AM 71.8 °F - 59.2 °F 64% 29.82 in 10.0 mi SSE 12.7 mph 20.7 mph N/A   Clear
2:55 AM 71.8 °F - 59.2 °F 64% 29.82 in 10.0 mi SSE 13.8 mph 19.6 mph N/A   Clear
3:15 AM 71.6 °F - 59.4 °F 65% 29.81 in 10.0 mi SSE 13.8 mph 18.4 mph N/A   Clear
3:35 AM 71.6 °F - 59.2 °F 65% 29.81 in 10.0 mi SSE 12.7 mph 19.6 mph N/A   Clear
3:55 AM 71.6 °F - 59.2 °F 65% 29.82 in 10.0 mi SSE 11.5 mph 16.1 mph N/A   Clear
4:15 AM 71.2 °F - 59.2 °F 66% 29.81 in 10.0 mi SSE 13.8 mph 18.4 mph N/A   Clear
4:35 AM 70.7 °F - 59.4 °F 67% 29.81 in 10.0 mi SSE 13.8 mph - N/A   Clear
4:55 AM 70.5 °F - 59.2 °F 67% 29.82 in 10.0 mi SSE 15.0 mph 19.6 mph N/A   Clear
5:15 AM 70.7 °F - 59.2 °F 67% 29.82 in 10.0 mi SSE 12.7 mph 18.4 mph N/A   Clear
5:35 AM 70.0 °F - 59.0 °F 68% 29.82 in 10.0 mi SSE 12.7 mph - N/A   Clear
5:55 AM 70.2 °F - 59.0 °F 68% 29.82 in 10.0 mi SSE 15.0 mph 19.6 mph N/A   Clear
6:15 AM 70.2 °F - 59.0 °F 68% 29.82 in 10.0 mi SSE 13.8 mph 19.6 mph N/A   Clear
6:35 AM 68.9 °F - 59.9 °F 73% 29.82 in 10.0 mi SSE 11.5 mph 20.7 mph N/A Rain Light Rain
6:55 AM 69.8 °F - 59.2 °F 69% 29.82 in 10.0 mi SSE 16.1 mph 21.9 mph N/A   Scattered Clouds
7:15 AM 69.8 °F - 59.0 °F 68% 29.83 in 10.0 mi SSE 15.0 mph 19.6 mph N/A   Scattered Clouds
7:35 AM 69.8 °F - 58.8 °F 68% 29.84 in 10.0 mi SSE 9.2 mph 20.7 mph N/A Rain Light Rain
7:55 AM 68.9 °F - 59.2 °F 71% 29.85 in 10.0 mi SSE 12.7 mph 18.4 mph N/A Rain Light Rain
8:15 AM 69.8 °F - 59.0 °F 68% 29.84 in 10.0 mi SSE 13.8 mph 19.6 mph N/A   Clear
8:35 AM 70.5 °F - 59.0 °F 67% 29.84 in 10.0 mi SSE 16.1 mph 20.7 mph N/A   Clear
8:55 AM 70.5 °F - 59.0 °F 67% 29.84 in 10.0 mi SSE 12.7 mph - N/A   Clear
9:15 AM 70.0 °F - 59.0 °F 68% 29.85 in 10.0 mi SSE 13.8 mph - N/A   Clear
9:35 AM 70.2 °F - 59.0 °F 68% 29.84 in 10.0 mi SSE 15.0 mph 20.7 mph N/A   Clear
9:55 AM 73.0 °F - 59.0 °F 61% 29.84 in 10.0 mi SSE 19.6 mph 25.3 mph N/A   Clear
10:15 AM 73.9 °F - 58.8 °F 59% 29.85 in 10.0 mi South 17.3 mph 28.8 mph N/A   Clear
10:35 AM 76.8 °F - 59.0 °F 54% 29.85 in 10.0 mi South 20.7 mph 26.5 mph N/A   Clear
10:55 AM 77.4 °F - 59.2 °F 53% 29.85 in 10.0 mi South 19.6 mph 27.6 mph N/A   Clear
11:15 AM 79.2 °F - 59.4 °F 51% 29.85 in 10.0 mi South 17.3 mph 27.6 mph N/A   Clear
11:35 AM 80.2 °F 80.9 °F 59.4 °F 49% 29.84 in 10.0 mi South 19.6 mph 29.9 mph N/A   Clear
11:55 AM 81.3 °F 81.6 °F 59.0 °F 46% 29.83 in 10.0 mi South 23.0 mph 29.9 mph N/A   Clear
12:15 PM 82.9 °F 83.0 °F 59.7 °F 45% 29.83 in 10.0 mi South 21.9 mph 31.1 mph N/A   Clear
12:35 PM 84.0 °F 83.8 °F 59.5 °F 43% 29.83 in 10.0 mi SSE 20.7 mph 31.1 mph N/A   Clear
12:55 PM 84.2 °F 83.8 °F 59.0 °F 42% 29.82 in 10.0 mi South 21.9 mph 28.8 mph N/A   Clear
1:15 PM 84.7 °F 84.6 °F 59.9 °F 43% 29.82 in 10.0 mi South 25.3 mph 33.4 mph N/A   Clear
1:35 PM 85.5 °F 85.4 °F 60.4 °F 43% 29.82 in 10.0 mi South 16.1 mph 28.8 mph N/A   Clear
1:55 PM 85.6 °F 85.7 °F 60.8 °F 43% 29.81 in 10.0 mi SSE 15.0 mph 28.8 mph N/A   Clear
2:15 PM 86.2 °F 86.3 °F 61.2 °F 43% 29.80 in 10.0 mi South 20.7 mph 27.6 mph N/A   Clear
2:35 PM 86.5 °F 86.8 °F 61.5 °F 43% 29.80 in 10.0 mi South 21.9 mph 29.9 mph N/A   Clear
2:55 PM 87.1 °F 87.2 °F 61.5 °F 42% 29.79 in 10.0 mi South 24.2 mph 31.1 mph N/A   Clear
3:15 PM 87.3 °F 87.2 °F 61.0 °F 41% 29.78 in 10.0 mi South 21.9 mph 31.1 mph N/A   Clear
3:35 PM 86.9 °F 86.7 °F 60.8 °F 41% 29.78 in 10.0 mi South 18.4 mph 33.4 mph N/A   Clear
3:55 PM 86.9 °F 86.7 °F 60.6 °F 41% 29.78 in 10.0 mi South 18.4 mph 29.9 mph N/A   Clear
4:15 PM 86.5 °F 86.5 °F 61.0 °F 42% 29.78 in 10.0 mi South 16.1 mph 29.9 mph N/A   Clear
4:35 PM 86.0 °F 86.1 °F 61.2 °F 43% 29.78 in 10.0 mi South 17.3 mph 32.2 mph N/A   Clear
4:55 PM 85.8 °F 85.9 °F 60.8 °F 43% 29.78 in 10.0 mi SSE 16.1 mph 25.3 mph N/A   Clear
5:15 PM 84.7 °F 84.8 °F 60.8 °F 44% 29.78 in 10.0 mi SSE 15.0 mph 32.2 mph N/A   Scattered Clouds
5:35 PM 84.6 °F 84.8 °F 61.0 °F 45% 29.78 in 10.0 mi South 16.1 mph 26.5 mph N/A   Scattered Clouds
5:55 PM 83.5 °F 83.6 °F 60.3 °F 45% 29.78 in 10.0 mi South 19.6 mph 27.6 mph N/A   Clear
6:15 PM 83.3 °F 83.4 °F 59.7 °F 45% 29.77 in 10.0 mi SSE 18.4 mph 28.8 mph N/A   Clear
6:35 PM 82.4 °F 82.6 °F 59.5 °F 46% 29.77 in 10.0 mi South 15.0 mph 23.0 mph N/A   Scattered Clouds
6:55 PM 81.1 °F 81.5 °F 59.0 °F 47% 29.77 in 10.0 mi SSE 13.8 mph 20.7 mph N/A   Scattered Clouds
7:15 PM 80.2 °F 80.7 °F 58.3 °F 47% 29.78 in 10.0 mi SSE 12.7 mph 18.4 mph N/A   Scattered Clouds
7:35 PM 79.3 °F - 58.3 °F 48% 29.78 in 10.0 mi SSE 10.4 mph 19.6 mph N/A   Clear
7:55 PM 78.8 °F - 58.1 °F 49% 29.78 in 10.0 mi SSE 15.0 mph 25.3 mph N/A   Clear
8:15 PM 78.4 °F - 57.7 °F 49% 29.79 in 10.0 mi SSE 13.8 mph 19.6 mph N/A   Clear
8:35 PM 77.9 °F - 57.7 °F 50% 29.80 in 10.0 mi SSE 12.7 mph - N/A   Scattered Clouds
8:55 PM 77.2 °F - 57.6 °F 51% 29.80 in 10.0 mi SSE 13.8 mph 20.7 mph N/A   Scattered Clouds
9:15 PM 77.0 °F - 57.2 °F 50% 29.78 in 10.0 mi SSE 16.1 mph 23.0 mph N/A   Clear
9:35 PM 76.3 °F - 56.8 °F 51% 29.78 in 10.0 mi SSE 15.0 mph 20.7 mph N/A   Clear
9:55 PM 75.4 °F - 57.2 °F 53% 29.78 in 10.0 mi SSE 15.0 mph 19.6 mph N/A   Clear
10:15 PM 75.2 °F - 57.4 °F 54% 29.78 in 10.0 mi SSE 13.8 mph 23.0 mph N/A   Clear
10:35 PM 75.2 °F - 57.6 °F 54% 29.78 in 10.0 mi SSE 13.8 mph 20.7 mph N/A   Scattered Clouds
10:55 PM 75.6 °F - 57.6 °F 53% 29.77 in 10.0 mi SSE 17.3 mph 24.2 mph N/A   Mostly Cloudy
11:15 PM 75.6 °F - 57.7 °F 54% 29.76 in 10.0 mi SSE 18.4 mph 25.3 mph N/A   Mostly Cloudy
11:35 PM 75.7 °F - 57.7 °F 53% 29.75 in 10.0 mi SSE 18.4 mph 27.6 mph N/A   Scattered Clouds
11:55 PM 75.6 °F - 58.1 °F 55% 29.74 in 10.0 mi SSE 18.4 mph 27.6 mph N/A   Clear